SCP
-0 0 0 0 0 0 0 0 0 0 0 0 0 0 0 0 0 0 0 0 0 0 0 0 0 0 0 0 0 0 0 0 0 0 0 0 0 0 0 0 0 0 0
0 0 0 0 0 0 0 0 0 0 0 0 0 0 0 0 0 0 0 0 0 0 0 0 0 0 0 0 0 0 0 0 0 0 0 0 0 0 0 0 0 0 0
0 0 0 0 0 0 0 0 0 0 0 0 0 0 0 0 0 0 0 0 0 0 0 0 0 0 0 0 0 0 0 0 0 0 0 0 0 0 0 0 0 0 0
0 0 0 0 0 0 0 0 0 0 0 0 0 0 0 0 0 0 0 0 0 0 0 0 0 0 0 0 0 0 0 0 0 0 0 0 0 0 0 0 0 0 0
0 0 0 0 0 0 0 0 0 0 0 0 0 0 0 0 0 0 0 0 0 0 0 0 0 0 0 0 0 0 0 0 0 0 0 0 0 0 0 0 0 0 0
0 0 0 0 0 0 0 0 0 0 0 0 0 0 0 0 0 0 0 0 0 0 0 0 0 0 0 0 0 0 0 0 0 0 0 0 0 0 0 0 0 0 0
0 0 0 0 0 0 0 0 0 0 0 0 0 0 0 0 0 0 0 0 0 0 0 0 0 0 0 0 0 0 0 0 0 0 0 0 0 0 0 0 0 0 0
0 0 0 0 0 0 0 0 0 0 0 0 0 0 0 0 0 0 0 0 0 0 0 0 0 0 0 0 0 0 0 0 0 0 0 0 0 0 0 0 0 0 0
0 0 0 0 0 0 0 0 0 0 0 0 0 0 0 0 0 0 0 0 0 0 0 0 0 0 0 0 0 0 0 0 0 0 0 0 0 0 0 0 0 0 0
0 0 0 0 0 0 0 0 0 0 0 0 0 0 0 0 0 0 0 0 0 0 0 0 0 0 0 0 0 0 0 0 0 0 0 0 0 0 0 0 0 0 0
0 0 0 0 0 0 0 0 0 0 0 0 0 0 0 0 0 0 0 0 0 0 0 0 0 0 0 0 0 0 0 0 0 0 0 0 0 0 0 0 0 0 0
0 0 0 0 0 0 0 0 0 0 0 0 0 0 0 0 0 0 0 0 0 0 0 0 0 0 0 0 0 0 0 0 0 0 0 0 0 0 0 0 0 0 0
0 0 0 0 0 0 0 0 0 0 0 0 0 0 0 0 0 0 0 0 0 0 0 0 0 0 0 0 0 0 0 0 0 0 0 0 0 0 0 0 0 0 0
0 0 0 0 0 0 0 0 0 0 0 0 0 0 0 0 0 0 0 0 0 0 0 0 0 0 0 0 0 0 0 0 0 0 0 0 0 0 0 0 0 0 0
0 0 0 0 0 0 0 0 0 0 0 0 0 0 0 0 0 0 0 0 0 0 0 0 0 0 0 0 0 0 0 0 0 0 0 0 0 0 0 0 0 0 0
0 0 0 0 0 0 0 0 0 0 0 0 0 0 0 0 0 0 0 0 0 0 0 0 0 0 0 0 0 0 0 0 0 0 0 0 0 0 0 0 0 0 0
0 0 0 0 0 0 0 0 0 0 0 0 0 0 0 0 0 0 0 0 0 0 0 0 0 0 0 0 0 0 0 0 0 0 0 0 0 0 0 0 0 0 0
0 0 0 0 0 0 0 0 0 0 0 0 0 0 0 0 0 0 0 0 0 0 0 0 0 0 0 0 0 0 0 0 0 0 0 0 0 0 0 0 0 0 0
0 0 0 0 0 0 0 0 0 0 0 0 0 0 0 0 0 0 0 0 0 0 0 0 0 0 0 0 0 0 0 0 0 0 0 0 0 0 0 0 0 0 0
0 0 0 0 0 0 0 0 0 0 0 0 0 0 0 0 0 0 0 0 0 0 0 0 0 0 0 0 0 0 0 0 0 0 0 0 0 0 0 0 0 0 0
0 0 0 0 0 0 0 0 0 0 0 0 0 0 0 0 0 0 0 0 0 0 0 0 0 0 0 0 0 0 0 0 0 0 0 0 0 0 0 0 0 0 0
0 0 0 0 0 0 0 0 0 0 0 0 0 0 0 0 0 0 0 0 0 0 0 0 0 0 0 0 0 0 0 0 0 0 0 0 0 0 0 0 0 0 0
0 0 0 0 0 0 0 0 0 0 0 0 0 0 0 0 0 0 0 0 0 0 0 0 0 0 0 0 0 0 0 0 0 0 0 0 0 0 0 0 0 0 0
0 0 0 0 0 0 0 0 0 0 0 0 0 0 0 0 0 0 0 0 0 0 0 0 0 0 0 0 0 0 0 0 0 0 0 0 0 0 0 0 0 0 0
0 0 0 0 0 0 0 0 0 0 0 0 0 0 0 0 0 0 0 0 0 0 0 0 0 0 0 0 0 0 0 0 0 0 0 0 0 0 0 0 0 0 0
0 0 0 0 0 0 0 0 0 0 0 0 0 0 0 0 0 0 0 0 0 0 0 0 0 0 0 0 0 0 0 0 0 0 0 0 0 0 0 0 0 0 0
Wind_Speed_500mb
18 19 20 19 19 17 15 14 12 11 11 11 12 13 13 12 12 13 13 13 13 14 13 13 7 7 11 6 8 17 19 18 13 12 15 17 19 21 21 22 24 26 28
21 19 20 19 20 17 16 16 16 15 15 15 16 16 16 16 16 16 15 17 18 16 13 8 11 9 10 13 19 20 14 10 10 12 15 17 20 22 23 25 26 27 29
21 20 19 19 18 19 19 20 20 20 20 20 19 19 17 17 18 18 19 20 20 17 13 13 12 7 12 20 22 18 11 10 11 14 16 18 21 23 24 24 25 28 30
24 23 23 22 22 23 23 25 24 25 25 24 22 20 21 19 20 22 22 21 20 20 18 18 17 15 16 21 22 17 12 12 13 16 18 21 20 19 21 24 27 30 32
31 31 28 26 27 27 28 28 30 29 26 26 23 23 23 24 26 27 24 23 24 24 24 24 21 18 19 21 22 17 13 14 15 16 16 17 17 18 21 24 27 29 31
38 37 36 33 33 34 33 33 33 31 28 24 26 28 32 33 29 30 29 29 29 30 30 28 26 23 22 22 21 17 16 16 16 14 13 13 14 17 20 23 25 28 30
44 44 43 41 40 42 39 35 32 31 34 30 33 38 33 32 33 35 36 35 33 34 35 34 33 29 26 27 26 18 17 17 16 14 11 10 11 14 18 21 24 28 30
52 50 49 49 49 49 47 45 42 39 42 36 34 35 34 30 31 36 39 34 37 38 38 38 39 36 27 28 26 22 17 18 16 12 10 9 9 13 16 21 24 27 31
57 57 55 56 55 56 55 51 49 47 50 41 34 31 17 27 29 31 39 41 43 47 47 47 43 42 33 27 28 27 19 19 16 14 13 11 11 13 16 20 24 29 32
62 61 61 59 60 61 61 56 52 53 54 49 42 43 47 50 41 28 35 51 50 57 60 56 53 46 40 29 28 31 24 21 19 17 19 14 12 13 16 21 26 31 34
67 67 65 64 64 63 64 60 57 60 59 61 54 50 52 54 57 58 48 43 49 57 69 62 56 49 45 34 32 31 30 24 21 21 23 18 15 16 19 23 28 34 36
66 68 69 69 67 67 67 64 61 63 64 64 64 64 67 66 60 60 66 67 64 59 62 67 65 57 48 44 44 33 33 26 24 26 25 23 20 20 23 27 32 36 40
65 65 63 64 66 68 68 67 67 66 70 70 69 68 67 75 69 59 59 64 64 60 59 59 72 60 58 48 46 38 32 30 28 29 28 27 27 26 28 32 36 40 44
65 61 59 57 59 61 65 69 71 73 73 74 76 75 75 76 73 66 64 63 63 56 55 62 60 66 60 55 50 41 32 32 30 33 34 33 34 31 34 37 40 44 48
64 60 56 54 53 55 58 62 68 72 76 75 77 80 86 82 76 77 77 73 66 48 61 57 54 53 58 60 51 32 33 34 31 34 37 41 38 36 39 42 44 47 50
61 58 56 56 54 53 52 55 57 58 62 70 72 73 77 84 85 84 84 78 53 59 60 40 43 51 50 51 37 29 36 32 37 39 45 44 41 41 44 45 46 49 51
63 59 56 57 56 55 50 53 56 61 69 67 62 60 63 66 72 89 79 71 60 58 58 46 50 48 43 33 26 34 32 36 44 46 48 45 42 45 47 47 48 51 49
65 62 55 58 51 50 52 59 57 60 59 57 58 55 61 62 57 60 60 55 52 57 50 56 50 42 26 24 40 36 31 45 50 53 48 44 44 47 49 47 51 51 48
61 55 55 56 56 50 58 60 57 64 57 56 53 55 53 52 51 60 50 50 58 51 54 53 42 27 23 24 31 37 37 48 54 52 48 45 47 49 48 48 51 48 48
54 54 55 51 53 54 58 65 66 58 54 51 49 52 45 42 47 46 50 40 48 53 44 34 18 12 20 38 32 31 46 45 50 52 47 47 49 48 45 49 46 47 46
38 43 47 51 56 56 63 56 45 51 53 54 51 41 40 38 41 40 41 44 35 42 31 16 20 30 38 32 27 38 41 41 55 50 46 48 46 45 45 44 43 45 45
32 34 36 40 44 46 41 37 42 44 46 47 41 39 35 37 37 43 39 38 40 32 23 23 20 24 23 29 37 40 39 50 51 46 41 39 41 43 40 40 41 44 43
31 32 33 34 33 33 33 33 32 28 21 16 19 17 18 29 36 33 37 35 27 22 17 12 17 20 33 37 42 43 44 49 50 49 49 49 44 40 39 39 42 45 41
15 14 14 14 12 11 9 9 13 16 18 16 14 16 19 27 30 30 27 25 24 23 19 19 31 38 44 39 47 48 45 48 50 50 49 51 44 42 39 40 43 44 38
7 6 4 3 8 8 6 7 12 10 11 15 19 20 22 27 27 29 23 23 17 13 19 35 28 36 45 48 52 49 46 46 52 52 49 48 47 48 42 42 45 42 38
5 3 3 4 7 8 9 9 14 19 22 20 19 21 23 25 21 18 17 19 23 41 37 31 48 48 51 56 52 50 49 51 51 52 44 40 42 44 46 47 40 34 42
Wind_Direction_500mb
202 204 204 208 212 214 218 224 231 235 240 247 251 254 263 267 270 276 292 306 320 330 329 348 25 334 318 322 288 300 312 335 0 10 10 9 1 1 1 0 359 359 360
207 210 217 220 224 228 232 236 238 242 245 249 252 252 254 262 268 275 283 297 308 315 311 318 320 335 337 324 323 325 330 355 6 9 358 2 358 356 359 4 6 9 8
218 220 226 233 235 238 244 246 249 250 249 249 251 254 252 252 260 269 279 288 293 294 287 294 300 317 310 321 327 336 337 348 351 352 353 357 358 1 6 9 10 10 9
232 234 236 238 242 247 251 253 254 256 260 258 254 257 257 255 260 270 276 277 281 283 272 274 285 292 304 318 327 326 327 330 338 346 350 356 2 5 8 10 11 11 13
237 240 244 244 248 253 258 259 260 260 261 265 266 269 263 265 264 267 269 269 272 276 268 268 283 286 301 313 315 310 310 317 332 342 350 356 357 3 14 13 12 13 14
240 245 247 247 250 255 259 263 265 261 267 270 271 269 267 270 259 263 265 265 270 274 269 268 278 279 288 300 299 292 299 313 324 328 345 352 356 7 11 10 9 11 9
245 248 252 253 255 258 264 268 269 268 270 264 269 275 274 263 262 264 266 264 270 276 270 268 271 275 283 298 292 283 292 304 316 320 329 337 356 3 6 4 4 5 3
246 248 253 255 257 259 259 258 260 269 264 267 271 267 277 277 276 269 261 260 262 265 267 273 267 273 280 295 284 278 284 296 303 305 302 319 344 349 354 356 356 357 355
249 251 254 255 257 258 260 260 260 260 261 267 259 254 269 273 280 272 258 252 253 257 260 263 266 263 268 278 284 275 277 288 295 289 286 294 315 334 346 345 346 347 345
251 251 254 256 257 257 259 261 260 259 257 256 252 249 255 263 270 275 270 254 251 257 254 259 262 265 264 272 279 272 274 281 281 277 274 278 301 319 327 334 336 337 338
254 256 256 257 257 258 259 259 259 255 254 252 250 255 259 257 260 264 270 261 257 269 247 255 245 257 255 262 270 264 265 267 265 261 265 272 285 302 313 321 329 332 330
255 255 257 259 261 261 260 261 262 259 257 255 253 256 257 259 264 266 267 267 274 268 257 252 249 248 251 264 264 257 263 267 263 261 262 272 281 293 305 316 322 322 321
262 260 260 262 263 264 265 264 262 261 258 256 255 258 259 259 262 267 271 275 271 265 259 256 250 243 251 262 262 253 261 267 264 264 266 273 278 290 299 309 314 315 318
270 270 269 268 269 269 270 269 267 266 265 263 262 259 260 261 263 258 259 262 258 256 258 255 254 247 254 254 254 251 255 263 271 265 267 274 277 285 296 303 309 312 313
272 274 275 274 272 272 270 272 272 272 271 270 266 265 261 263 263 259 259 261 263 263 264 253 245 249 253 253 253 258 258 275 274 279 282 275 278 287 296 302 305 309 311
273 273 276 277 277 275 276 276 273 274 273 271 272 273 274 272 264 264 260 267 269 273 267 261 256 258 254 252 245 248 266 274 289 291 283 275 280 290 295 296 302 307 310
270 271 273 273 273 275 273 272 271 273 273 276 277 276 280 283 275 273 261 267 262 269 250 259 259 253 249 237 245 260 258 291 296 291 277 277 283 289 292 294 301 304 310
270 269 267 265 267 269 272 267 268 272 273 276 275 277 281 283 284 274 264 258 275 255 255 259 250 241 218 252 253 246 258 294 291 282 277 278 284 287 290 293 299 303 308
268 265 265 264 263 265 266 264 267 271 273 276 274 276 276 281 281 274 279 275 258 253 257 253 248 219 244 248 260 260 286 297 285 279 277 279 281 285 287 292 298 302 305
263 263 261 257 260 261 263 268 272 272 274 274 278 283 282 281 285 276 278 265 265 257 255 254 245 260 266 261 255 270 295 296 286 280 277 278 280 282 283 291 296 298 305
258 258 257 254 255 259 265 273 264 264 268 275 279 276 284 275 270 275 265 271 271 261 250 228 210 261 267 255 285 289 293 290 281 274 272 275 278 279 286 288 289 297 301
258 256 255 257 260 263 262 260 264 265 265 270 280 278 277 274 268 260 258 257 269 245 221 248 271 250 250 287 289 299 289 281 274 272 271 274 277 281 281 280 289 294 297
256 259 260 259 260 257 259 257 260 266 254 255 279 291 299 278 263 257 262 267 250 244 239 244 259 278 282 289 300 296 281 272 269 273 280 278 280 281 282 281 289 292 292
243 255 256 247 243 231 229 244 255 262 243 224 232 259 280 278 269 269 261 250 239 232 255 271 276 289 289 293 293 282 272 268 272 278 282 284 286 282 281 281 286 286 285
225 219 221 210 241 247 261 256 229 229 252 263 270 286 291 273 263 265 257 243 226 266 288 295 291 286 290 285 283 282 277 276 279 281 282 282 283 285 280 280 283 276 278
179 192 219 236 265 252 245 251 266 278 278 283 293 287 278 274 272 259 236 246 275 290 285 280 290 287 285 282 285 282 276 276 278 284 284 279 283 282 287 286 277 270 281
Wind_Speed_850mb
18 19 20 19 19 17 15 14 12 11 11 11 12 13 13 12 12 13 13 13 13 14 13 13 7 7 11 6 8 17 19 18 13 12 15 17 19 21 21 22 24 26 28
21 19 20 19 20 17 16 16 16 15 15 15 16 16 16 16 16 16 15 17 18 16 13 8 11 9 10 13 19 20 14 10 10 12 15 17 20 22 23 25 26 27 29
21 20 19 19 18 19 19 20 20 20 20 20 19 19 17 17 18 18 19 20 20 17 13 13 12 7 12 20 22 18 11 10 11 14 16 18 21 23 24 24 25 28 30
24 23 23 22 22 23 23 25 24 25 25 24 22 20 21 19 20 22 22 21 20 20 18 18 17 15 16 21 22 17 12 12 13 16 18 21 20 19 21 24 27 30 32
31 31 28 26 27 27 28 28 30 29 26 26 23 23 23 24 26 27 24 23 24 24 24 24 21 18 19 21 22 17 13 14 15 16 16 17 17 18 21 24 27 29 31
38 37 36 33 33 34 33 33 33 31 28 24 26 28 32 33 29 30 29 29 29 30 30 28 26 23 22 22 21 17 16 16 16 14 13 13 14 17 20 23 25 28 30
44 44 43 41 40 42 39 35 32 31 34 30 33 38 33 32 33 35 36 35 33 34 35 34 33 29 26 27 26 18 17 17 16 14 11 10 11 14 18 21 24 28 30
52 50 49 49 49 49 47 45 42 39 42 36 34 35 34 30 31 36 39 34 37 38 38 38 39 36 27 28 26 22 17 18 16 12 10 9 9 13 16 21 24 27 31
57 57 55 56 55 56 55 51 49 47 50 41 34 31 17 27 29 31 39 41 43 47 47 47 43 42 33 27 28 27 19 19 16 14 13 11 11 13 16 20 24 29 32
62 61 61 59 60 61 61 56 52 53 54 49 42 43 47 50 41 28 35 51 50 57 60 56 53 46 40 29 28 31 24 21 19 17 19 14 12 13 16 21 26 31 34
67 67 65 64 64 63 64 60 57 60 59 61 54 50 52 54 57 58 48 43 49 57 69 62 56 49 45 34 32 31 30 24 21 21 23 18 15 16 19 23 28 34 36
66 68 69 69 67 67 67 64 61 63 64 64 64 64 67 66 60 60 66 67 64 59 62 67 65 57 48 44 44 33 33 26 24 26 25 23 20 20 23 27 32 36 40
65 65 63 64 66 68 68 67 67 66 70 70 69 68 67 75 69 59 59 64 64 60 59 59 72 60 58 48 46 38 32 30 28 29 28 27 27 26 28 32 36 40 44
65 61 59 57 59 61 65 69 71 73 73 74 76 75 75 76 73 66 64 63 63 56 55 62 60 66 60 55 50 41 32 32 30 33 34 33 34 31 34 37 40 44 48
64 60 56 54 53 55 58 62 68 72 76 75 77 80 86 82 76 77 77 73 66 48 61 57 54 53 58 60 51 32 33 34 31 34 37 41 38 36 39 42 44 47 50
61 58 56 56 54 53 52 55 57 58 62 70 72 73 77 84 85 84 84 78 53 59 60 40 43 51 50 51 37 29 36 32 37 39 45 44 41 41 44 45 46 49 51
63 59 56 57 56 55 50 53 56 61 69 67 62 60 63 66 72 89 79 71 60 58 58 46 50 48 43 33 26 34 32 36 44 46 48 45 42 45 47 47 48 51 49
65 62 55 58 51 50 52 59 57 60 59 57 58 55 61 62 57 60 60 55 52 57 50 56 50 42 26 24 40 36 31 45 50 53 48 44 44 47 49 47 51 51 48
61 55 55 56 56 50 58 60 57 64 57 56 53 55 53 52 51 60 50 50 58 51 54 53 42 27 23 24 31 37 37 48 54 52 48 45 47 49 48 48 51 48 48
54 54 55 51 53 54 58 65 66 58 54 51 49 52 45 42 47 46 50 40 48 53 44 34 18 12 20 38 32 31 46 45 50 52 47 47 49 48 45 49 46 47 46
38 43 47 51 56 56 63 56 45 51 53 54 51 41 40 38 41 40 41 44 35 42 31 16 20 30 38 32 27 38 41 41 55 50 46 48 46 45 45 44 43 45 45
32 34 36 40 44 46 41 37 42 44 46 47 41 39 35 37 37 43 39 38 40 32 23 23 20 24 23 29 37 40 39 50 51 46 41 39 41 43 40 40 41 44 43
31 32 33 34 33 33 33 33 32 28 21 16 19 17 18 29 36 33 37 35 27 22 17 12 17 20 33 37 42 43 44 49 50 49 49 49 44 40 39 39 42 45 41
15 14 14 14 12 11 9 9 13 16 18 16 14 16 19 27 30 30 27 25 24 23 19 19 31 38 44 39 47 48 45 48 50 50 49 51 44 42 39 40 43 44 38
7 6 4 3 8 8 6 7 12 10 11 15 19 20 22 27 27 29 23 23 17 13 19 35 28 36 45 48 52 49 46 46 52 52 49 48 47 48 42 42 45 42 38
5 3 3 4 7 8 9 9 14 19 22 20 19 21 23 25 21 18 17 19 23 41 37 31 48 48 51 56 52 50 49 51 51 52 44 40 42 44 46 47 40 34 42
Wind_Direction_850mb
202 204 204 208 212 214 218 224 231 235 240 247 251 254 263 267 270 276 292 306 320 330 329 348 25 334 318 322 288 300 312 335 0 10 10 9 1 1 1 0 359 359 360
207 210 217 220 224 228 232 236 238 242 245 249 252 252 254 262 268 275 283 297 308 315 311 318 320 335 337 324 323 325 330 355 6 9 358 2 358 356 359 4 6 9 8
218 220 226 233 235 238 244 246 249 250 249 249 251 254 252 252 260 269 279 288 293 294 287 294 300 317 310 321 327 336 337 348 351 352 353 357 358 1 6 9 10 10 9
232 234 236 238 242 247 251 253 254 256 260 258 254 257 257 255 260 270 276 277 281 283 272 274 285 292 304 318 327 326 327 330 338 346 350 356 2 5 8 10 11 11 13
237 240 244 244 248 253 258 259 260 260 261 265 266 269 263 265 264 267 269 269 272 276 268 268 283 286 301 313 315 310 310 317 332 342 350 356 357 3 14 13 12 13 14
240 245 247 247 250 255 259 263 265 261 267 270 271 269 267 270 259 263 265 265 270 274 269 268 278 279 288 300 299 292 299 313 324 328 345 352 356 7 11 10 9 11 9
245 248 252 253 255 258 264 268 269 268 270 264 269 275 274 263 262 264 266 264 270 276 270 268 271 275 283 298 292 283 292 304 316 320 329 337 356 3 6 4 4 5 3
246 248 253 255 257 259 259 258 260 269 264 267 271 267 277 277 276 269 261 260 262 265 267 273 267 273 280 295 284 278 284 296 303 305 302 319 344 349 354 356 356 357 355
249 251 254 255 257 258 260 260 260 260 261 267 259 254 269 273 280 272 258 252 253 257 260 263 266 263 268 278 284 275 277 288 295 289 286 294 315 334 346 345 346 347 345
251 251 254 256 257 257 259 261 260 259 257 256 252 249 255 263 270 275 270 254 251 257 254 259 262 265 264 272 279 272 274 281 281 277 274 278 301 319 327 334 336 337 338
254 256 256 257 257 258 259 259 259 255 254 252 250 255 259 257 260 264 270 261 257 269 247 255 245 257 255 262 270 264 265 267 265 261 265 272 285 302 313 321 329 332 330
255 255 257 259 261 261 260 261 262 259 257 255 253 256 257 259 264 266 267 267 274 268 257 252 249 248 251 264 264 257 263 267 263 261 262 272 281 293 305 316 322 322 321
262 260 260 262 263 264 265 264 262 261 258 256 255 258 259 259 262 267 271 275 271 265 259 256 250 243 251 262 262 253 261 267 264 264 266 273 278 290 299 309 314 315 318
270 270 269 268 269 269 270 269 267 266 265 263 262 259 260 261 263 258 259 262 258 256 258 255 254 247 254 254 254 251 255 263 271 265 267 274 277 285 296 303 309 312 313
272 274 275 274 272 272 270 272 272 272 271 270 266 265 261 263 263 259 259 261 263 263 264 253 245 249 253 253 253 258 258 275 274 279 282 275 278 287 296 302 305 309 311
273 273 276 277 277 275 276 276 273 274 273 271 272 273 274 272 264 264 260 267 269 273 267 261 256 258 254 252 245 248 266 274 289 291 283 275 280 290 295 296 302 307 310
270 271 273 273 273 275 273 272 271 273 273 276 277 276 280 283 275 273 261 267 262 269 250 259 259 253 249 237 245 260 258 291 296 291 277 277 283 289 292 294 301 304 310
270 269 267 265 267 269 272 267 268 272 273 276 275 277 281 283 284 274 264 258 275 255 255 259 250 241 218 252 253 246 258 294 291 282 277 278 284 287 290 293 299 303 308
268 265 265 264 263 265 266 264 267 271 273 276 274 276 276 281 281 274 279 275 258 253 257 253 248 219 244 248 260 260 286 297 285 279 277 279 281 285 287 292 298 302 305
263 263 261 257 260 261 263 268 272 272 274 274 278 283 282 281 285 276 278 265 265 257 255 254 245 260 266 261 255 270 295 296 286 280 277 278 280 282 283 291 296 298 305
258 258 257 254 255 259 265 273 264 264 268 275 279 276 284 275 270 275 265 271 271 261 250 228 210 261 267 255 285 289 293 290 281 274 272 275 278 279 286 288 289 297 301
258 256 255 257 260 263 262 260 264 265 265 270 280 278 277 274 268 260 258 257 269 245 221 248 271 250 250 287 289 299 289 281 274 272 271 274 277 281 281 280 289 294 297
256 259 260 259 260 257 259 257 260 266 254 255 279 291 299 278 263 257 262 267 250 244 239 244 259 278 282 289 300 296 281 272 269 273 280 278 280 281 282 281 289 292 292
243 255 256 247 243 231 229 244 255 262 243 224 232 259 280 278 269 269 261 250 239 232 255 271 276 289 289 293 293 282 272 268 272 278 282 284 286 282 281 281 286 286 285
225 219 221 210 241 247 261 256 229 229 252 263 270 286 291 273 263 265 257 243 226 266 288 295 291 286 290 285 283 282 277 276 279 281 282 282 283 285 280 280 283 276 278
179 192 219 236 265 252 245 251 266 278 278 283 293 287 278 274 272 259 236 246 275 290 285 280 290 287 285 282 285 282 276 276 278 284 284 279 283 282 287 286 277 270 281